Time,TemperatureF,DewpointF,PressureIn,WindDirection,WindDirectionDegrees,WindSpeedMPH,WindSpeedGustMPH,Humidity,HourlyPrecipIn,Conditions,Clouds,dailyrainin,SoftwareType,DateUTC
2013-04-16 00:03:00,28.0,11.0,27.12,NE,45,10.0,12.0,47,0.00,,,0.00,Rainwise IP-100,2013-04-16 06:03:00,
2013-04-16 00:08:00,28.0,11.0,27.12,ENE,67,3.0,14.0,47,0.00,,,0.00,Rainwise IP-100,2013-04-16 06:08:00,
2013-04-16 00:13:00,28.0,11.0,27.11,ESE,112,3.0,12.0,48,0.00,,,0.00,Rainwise IP-100,2013-04-16 06:13:00,
2013-04-16 00:18:00,28.0,11.0,27.11,ENE,67,1.0,12.0,48,0.00,,,0.00,Rainwise IP-100,2013-04-16 06:18:00,
2013-04-16 00:23:00,28.0,11.0,27.12,ENE,67,5.0,13.0,48,0.00,,,0.00,Rainwise IP-100,2013-04-16 06:23:00,
2013-04-16 00:28:00,28.0,11.0,27.12,ENE,67,9.0,15.0,48,0.00,,,0.00,Rainwise IP-100,2013-04-16 06:28:00,
2013-04-16 00:33:00,27.0,11.0,27.11,NNE,22,9.0,12.0,49,0.00,,,0.00,Rainwise IP-100,2013-04-16 06:33:00,
2013-04-16 00:38:00,27.0,11.0,27.11,ENE,67,3.0,13.0,49,0.00,,,0.00,Rainwise IP-100,2013-04-16 06:38:00,
2013-04-16 00:43:00,27.0,11.0,27.12,NE,45,6.0,11.0,49,0.00,,,0.00,Rainwise IP-100,2013-04-16 06:43:00,
2013-04-16 00:48:00,27.0,14.0,27.12,ENE,67,6.0,15.0,50,0.00,,,0.00,Rainwise IP-100,2013-04-16 06:48:00,
2013-04-16 00:53:00,27.0,14.0,27.12,NE,45,9.0,13.0,50,0.00,,,0.00,Rainwise IP-100,2013-04-16 06:53:00,
2013-04-16 00:58:00,27.0,14.0,27.12,ENE,67,6.0,13.0,50,0.00,,,0.00,Rainwise IP-100,2013-04-16 06:58:00,
2013-04-16 01:03:00,27.0,14.0,27.12,ENE,67,5.0,9.0,50,0.00,,,0.00,Rainwise IP-100,2013-04-16 07:03:00,
2013-04-16 01:08:00,27.0,11.0,27.12,ENE,67,9.0,10.0,49,0.00,,,0.00,Rainwise IP-100,2013-04-16 07:08:00,
2013-04-16 01:13:00,27.0,14.0,27.12,ENE,67,6.0,16.0,50,0.00,,,0.00,Rainwise IP-100,2013-04-16 07:13:00,
2013-04-16 01:18:00,27.0,14.0,27.12,NNE,22,3.0,12.0,50,0.00,,,0.00,Rainwise IP-100,2013-04-16 07:18:00,
2013-04-16 01:23:00,27.0,14.0,27.13,NE,45,7.0,14.0,50,0.00,,,0.00,Rainwise IP-100,2013-04-16 07:23:00,
2013-04-16 01:28:00,27.0,14.0,27.13,NNE,22,7.0,10.0,50,0.00,,,0.00,Rainwise IP-100,2013-04-16 07:28:00,
2013-04-16 01:33:00,27.0,14.0,27.13,ENE,67,6.0,9.0,50,0.00,,,0.00,Rainwise IP-100,2013-04-16 07:33:00,
2013-04-16 01:38:00,27.0,14.0,27.13,East,90,4.0,12.0,50,0.00,,,0.00,Rainwise IP-100,2013-04-16 07:38:00,
2013-04-16 01:43:00,27.0,14.0,27.13,NNE,22,6.0,13.0,51,0.00,,,0.00,Rainwise IP-100,2013-04-16 07:43:00,
2013-04-16 01:48:00,27.0,14.0,27.13,ENE,67,4.0,14.0,51,0.00,,,0.00,Rainwise IP-100,2013-04-16 07:48:00,
2013-04-16 01:53:00,27.0,14.0,27.13,NE,45,10.0,12.0,51,0.00,,,0.00,Rainwise IP-100,2013-04-16 07:53:00,
2013-04-16 01:58:00,26.0,11.0,27.13,NNE,22,5.0,15.0,51,0.00,,,0.00,Rainwise IP-100,2013-04-16 07:58:00,
2013-04-16 02:03:00,27.0,14.0,27.13,ENE,67,10.0,10.0,50,0.00,,,0.00,Rainwise IP-100,2013-04-16 08:03:00,
2013-04-16 02:08:00,26.0,11.0,27.13,ENE,67,6.0,13.0,51,0.00,,,0.00,Rainwise IP-100,2013-04-16 08:08:00,
2013-04-16 02:13:00,26.0,11.0,27.13,NE,45,7.0,16.0,50,0.00,,,0.00,Rainwise IP-100,2013-04-16 08:13:00,
2013-04-16 02:18:00,26.0,11.0,27.13,NE,45,8.0,12.0,50,0.00,,,0.00,Rainwise IP-100,2013-04-16 08:18:00,
2013-04-16 02:23:00,26.0,11.0,27.13,NE,45,6.0,12.0,50,0.00,,,0.00,Rainwise IP-100,2013-04-16 08:23:00,
2013-04-16 02:28:00,26.0,11.0,27.13,ENE,67,7.0,10.0,50,0.00,,,0.00,Rainwise IP-100,2013-04-16 08:28:00,
2013-04-16 02:33:00,26.0,11.0,27.13,ENE,67,10.0,12.0,50,0.00,,,0.00,Rainwise IP-100,2013-04-16 08:33:00,
2013-04-16 02:38:00,26.0,11.0,27.13,ENE,67,10.0,13.0,50,0.00,,,0.00,Rainwise IP-100,2013-04-16 08:38:00,
2013-04-16 02:43:00,26.0,11.0,27.13,NE,45,7.0,15.0,48,0.00,,,0.00,Rainwise IP-100,2013-04-16 08:43:00,
2013-04-16 02:48:00,26.0,11.0,27.13,NNW,337,4.0,11.0,49,0.00,,,0.00,Rainwise IP-100,2013-04-16 08:48:00,
2013-04-16 02:53:00,26.0,11.0,27.13,ENE,67,5.0,12.0,50,0.00,,,0.00,Rainwise IP-100,2013-04-16 08:53:00,
2013-04-16 02:58:00,26.0,11.0,27.13,ENE,67,4.0,10.0,49,0.00,,,0.00,Rainwise IP-100,2013-04-16 08:58:00,
2013-04-16 03:03:00,26.0,11.0,27.13,NE,45,3.0,9.0,49,0.00,,,0.00,Rainwise IP-100,2013-04-16 09:03:00,
2013-04-16 03:08:00,26.0,11.0,27.13,ENE,67,6.0,9.0,50,0.00,,,0.00,Rainwise IP-100,2013-04-16 09:08:00,
2013-04-16 03:13:00,26.0,11.0,27.14,NE,45,5.0,7.0,50,0.00,,,0.00,Rainwise IP-100,2013-04-16 09:13:00,
2013-04-16 03:18:00,26.0,11.0,27.14,ESE,112,0.0,9.0,50,0.00,,,0.00,Rainwise IP-100,2013-04-16 09:18:00,
2013-04-16 03:23:00,26.0,11.0,27.14,ESE,112,4.0,9.0,50,0.00,,,0.00,Rainwise IP-100,2013-04-16 09:23:00,
2013-04-16 03:28:00,25.0,11.0,27.14,ENE,67,4.0,10.0,50,0.00,,,0.00,Rainwise IP-100,2013-04-16 09:28:00,
2013-04-16 03:33:00,25.0,11.0,27.15,ESE,112,2.0,7.0,51,0.00,,,0.00,Rainwise IP-100,2013-04-16 09:33:00,
2013-04-16 03:38:00,25.0,11.0,27.15,ENE,67,4.0,6.0,51,0.00,,,0.00,Rainwise IP-100,2013-04-16 09:38:00,
2013-04-16 03:43:00,25.0,11.0,27.15,East,90,1.0,6.0,51,0.00,,,0.00,Rainwise IP-100,2013-04-16 09:43:00,
2013-04-16 03:48:00,25.0,11.0,27.15,ESE,112,4.0,6.0,52,0.00,,,0.00,Rainwise IP-100,2013-04-16 09:48:00,
2013-04-16 03:53:00,25.0,11.0,27.15,ESE,112,5.0,6.0,52,0.00,,,0.00,Rainwise IP-100,2013-04-16 09:53:00,
2013-04-16 03:58:00,25.0,11.0,27.15,ESE,112,1.0,6.0,52,0.00,,,0.00,Rainwise IP-100,2013-04-16 09:58:00,
2013-04-16 04:03:00,25.0,11.0,27.15,ENE,67,2.0,7.0,52,0.00,,,0.00,Rainwise IP-100,2013-04-16 10:03:00,
2013-04-16 04:08:00,25.0,11.0,27.15,ENE,67,5.0,6.0,52,0.00,,,0.00,Rainwise IP-100,2013-04-16 10:08:00,
2013-04-16 04:13:00,25.0,11.0,27.16,ENE,67,3.0,7.0,52,0.00,,,0.00,Rainwise IP-100,2013-04-16 10:13:00,
2013-04-16 04:18:00,25.0,11.0,27.16,East,90,6.0,7.0,53,0.00,,,0.00,Rainwise IP-100,2013-04-16 10:18:00,
2013-04-16 04:23:00,25.0,11.0,27.16,ESE,112,5.0,9.0,52,0.00,,,0.00,Rainwise IP-100,2013-04-16 10:23:00,
2013-04-16 04:28:00,25.0,11.0,27.16,ESE,112,1.0,7.0,52,0.00,,,0.00,Rainwise IP-100,2013-04-16 10:28:00,
2013-04-16 04:33:00,25.0,14.0,27.17,East,90,6.0,9.0,54,0.00,,,0.00,Rainwise IP-100,2013-04-16 10:33:00,
2013-04-16 04:38:00,25.0,11.0,27.17,ENE,67,2.0,12.0,53,0.00,,,0.00,Rainwise IP-100,2013-04-16 10:38:00,
2013-04-16 04:39:00,25.0,14.0,27.17,ENE,67,5.0,12.0,54,0.00,,,0.00,Rainwise IP-100,2013-04-16 10:39:00,
2013-04-16 04:44:00,25.0,14.0,27.17,ENE,67,4.0,8.0,55,0.00,,,0.00,Rainwise IP-100,2013-04-16 10:44:00,
2013-04-16 04:49:00,24.0,11.0,27.17,NNE,22,6.0,8.0,55,0.00,,,0.00,Rainwise IP-100,2013-04-16 10:49:00,
2013-04-16 04:54:00,24.0,11.0,27.17,NE,45,4.0,10.0,55,0.00,,,0.00,Rainwise IP-100,2013-04-16 10:54:00,
2013-04-16 04:59:00,25.0,14.0,27.17,ESE,112,6.0,8.0,55,0.00,,,0.00,Rainwise IP-100,2013-04-16 10:59:00,
2013-04-16 05:04:00,25.0,14.0,27.17,ENE,67,7.0,9.0,55,0.00,,,0.00,Rainwise IP-100,2013-04-16 11:04:00,
2013-04-16 05:09:00,24.0,11.0,27.17,ESE,112,2.0,10.0,56,0.00,,,0.00,Rainwise IP-100,2013-04-16 11:09:00,
2013-04-16 05:14:00,24.0,11.0,27.18,ENE,67,5.0,11.0,57,0.00,,,0.00,Rainwise IP-100,2013-04-16 11:14:00,
2013-04-16 05:19:00,24.0,11.0,27.18,ENE,67,10.0,10.0,57,0.00,,,0.00,Rainwise IP-100,2013-04-16 11:19:00,
2013-04-16 05:24:00,24.0,11.0,27.18,NE,45,6.0,14.0,57,0.00,,,0.00,Rainwise IP-100,2013-04-16 11:24:00,
2013-04-16 05:29:00,24.0,14.0,27.18,East,90,5.0,12.0,58,0.00,,,0.00,Rainwise IP-100,2013-04-16 11:29:00,
2013-04-16 05:34:00,24.0,14.0,27.18,ENE,67,2.0,11.0,58,0.00,,,0.00,Rainwise IP-100,2013-04-16 11:34:00,
2013-04-16 05:39:00,24.0,14.0,27.18,SE,135,8.0,13.0,58,0.00,,,0.00,Rainwise IP-100,2013-04-16 11:39:00,
2013-04-16 05:44:00,24.0,14.0,27.18,ENE,67,6.0,10.0,59,0.00,,,0.00,Rainwise IP-100,2013-04-16 11:44:00,
2013-04-16 05:49:00,24.0,14.0,27.18,East,90,5.0,11.0,58,0.00,,,0.00,Rainwise IP-100,2013-04-16 11:49:00,
2013-04-16 05:54:00,24.0,14.0,27.18,ENE,67,7.0,10.0,58,0.00,,,0.00,Rainwise IP-100,2013-04-16 11:54:00,
2013-04-16 05:59:00,24.0,14.0,27.18,ENE,67,12.0,13.0,58,0.00,,,0.00,Rainwise IP-100,2013-04-16 11:59:00,
2013-04-16 06:04:00,24.0,14.0,27.18,ENE,67,6.0,12.0,58,0.00,,,0.00,Rainwise IP-100,2013-04-16 12:04:00,
2013-04-16 06:09:00,24.0,14.0,27.18,ENE,67,6.0,13.0,58,0.00,,,0.00,Rainwise IP-100,2013-04-16 12:09:00,
2013-04-16 06:14:00,24.0,14.0,27.19,NE,45,7.0,9.0,59,0.00,,,0.00,Rainwise IP-100,2013-04-16 12:14:00,
2013-04-16 06:19:00,23.0,11.0,27.19,ENE,67,3.0,9.0,59,0.00,,,0.00,Rainwise IP-100,2013-04-16 12:19:00,
2013-04-16 06:24:00,24.0,14.0,27.18,NE,45,7.0,9.0,59,0.00,,,0.00,Rainwise IP-100,2013-04-16 12:24:00,
2013-04-16 06:29:00,23.0,11.0,27.18,ENE,67,6.0,10.0,59,0.00,,,0.00,Rainwise IP-100,2013-04-16 12:29:00,
2013-04-16 06:34:00,23.0,11.0,27.19,ENE,67,4.0,10.0,59,0.00,,,0.00,Rainwise IP-100,2013-04-16 12:34:00,
2013-04-16 06:39:00,23.0,11.0,27.19,ENE,67,6.0,10.0,59,0.00,,,0.00,Rainwise IP-100,2013-04-16 12:39:00,
2013-04-16 06:44:00,23.0,11.0,27.19,East,90,2.0,7.0,59,0.00,,,0.00,Rainwise IP-100,2013-04-16 12:44:00,
2013-04-16 06:49:00,23.0,11.0,27.19,ENE,67,9.0,9.0,59,0.00,,,0.00,Rainwise IP-100,2013-04-16 12:49:00,
2013-04-16 06:55:00,23.0,11.0,27.19,ENE,67,3.0,10.0,59,0.00,,,0.00,Rainwise IP-100,2013-04-16 12:55:00,
2013-04-16 07:00:00,23.0,11.0,27.19,ENE,67,6.0,9.0,58,0.00,,,0.00,Rainwise IP-100,2013-04-16 13:00:00,
2013-04-16 07:05:00,23.0,11.0,27.19,ESE,112,3.0,9.0,59,0.00,,,0.00,Rainwise IP-100,2013-04-16 13:05:00,
2013-04-16 07:10:00,23.0,11.0,27.19,East,90,4.0,7.0,59,0.00,,,0.00,Rainwise IP-100,2013-04-16 13:10:00,
2013-04-16 07:15:00,23.0,11.0,27.20,ESE,112,4.0,6.0,59,0.00,,,0.00,Rainwise IP-100,2013-04-16 13:15:00,
2013-04-16 07:20:00,23.0,11.0,27.20,ENE,67,1.0,6.0,59,0.00,,,0.00,Rainwise IP-100,2013-04-16 13:20:00,
2013-04-16 07:25:00,23.0,11.0,27.20,East,90,0.0,5.0,59,0.00,,,0.00,Rainwise IP-100,2013-04-16 13:25:00,
2013-04-16 07:30:00,24.0,14.0,27.20,North,360,1.0,6.0,59,0.00,,,0.00,Rainwise IP-100,2013-04-16 13:30:00,
2013-04-16 07:35:00,25.0,14.0,27.19,NNE,22,0.0,2.0,58,0.00,,,0.00,Rainwise IP-100,2013-04-16 13:35:00,
2013-04-16 07:40:00,25.0,14.0,27.19,ENE,67,4.0,4.0,57,0.00,,,0.00,Rainwise IP-100,2013-04-16 13:40:00,
2013-04-16 07:42:00,26.0,14.0,27.19,ENE,67,0.0,4.0,55,0.00,,,0.00,Rainwise IP-100,2013-04-16 13:42:00,
2013-04-16 07:47:00,26.0,11.0,27.18,ESE,112,2.0,6.0,53,0.00,,,0.00,Rainwise IP-100,2013-04-16 13:47:00,
2013-04-16 07:52:00,27.0,14.0,27.18,ESE,112,0.0,6.0,52,0.00,,,0.00,Rainwise IP-100,2013-04-16 13:52:00,
2013-04-16 07:57:00,27.0,14.0,27.18,SE,135,0.0,6.0,52,0.00,,,0.00,Rainwise IP-100,2013-04-16 13:57:00,
2013-04-16 08:02:00,28.0,14.0,27.17,NNE,22,1.0,6.0,51,0.00,,,0.00,Rainwise IP-100,2013-04-16 14:02:00,
2013-04-16 08:07:00,28.0,11.0,27.17,ENE,67,6.0,7.0,49,0.00,,,0.00,Rainwise IP-100,2013-04-16 14:07:00,
2013-04-16 08:12:00,28.0,11.0,27.17,NE,45,5.0,8.0,48,0.00,,,0.00,Rainwise IP-100,2013-04-16 14:12:00,
2013-04-16 08:17:00,28.0,11.0,27.17,ENE,67,2.0,10.0,49,0.00,,,0.00,Rainwise IP-100,2013-04-16 14:17:00,
2013-04-16 08:22:00,28.0,11.0,27.17,ENE,67,5.0,9.0,48,0.00,,,0.00,Rainwise IP-100,2013-04-16 14:22:00,
2013-04-16 08:27:00,29.0,14.0,27.17,NE,45,4.0,7.0,48,0.00,,,0.00,Rainwise IP-100,2013-04-16 14:27:00,
2013-04-16 08:32:00,29.0,11.0,27.17,ESE,112,6.0,9.0,45,0.00,,,0.00,Rainwise IP-100,2013-04-16 14:32:00,
2013-04-16 08:37:00,29.0,11.0,27.17,East,90,2.0,9.0,46,0.00,,,0.00,Rainwise IP-100,2013-04-16 14:37:00,
2013-04-16 08:42:00,30.0,14.0,27.16,SE,135,6.0,9.0,45,0.00,,,0.00,Rainwise IP-100,2013-04-16 14:42:00,
2013-04-16 08:47:00,30.0,14.0,27.16,ENE,67,7.0,8.0,45,0.00,,,0.00,Rainwise IP-100,2013-04-16 14:47:00,
2013-04-16 08:52:00,31.0,11.0,27.16,East,90,2.0,9.0,44,0.00,,,0.00,Rainwise IP-100,2013-04-16 14:52:00,
2013-04-16 08:57:00,31.0,14.0,27.16,ENE,67,6.0,7.0,45,0.00,,,0.00,Rainwise IP-100,2013-04-16 14:57:00,
2013-04-16 09:02:00,31.0,14.0,27.15,ESE,112,3.0,10.0,45,0.00,,,0.00,Rainwise IP-100,2013-04-16 15:02:00,
2013-04-16 09:07:00,31.0,11.0,27.15,NE,45,6.0,10.0,44,0.00,,,0.00,Rainwise IP-100,2013-04-16 15:07:00,
2013-04-16 09:12:00,32.0,14.0,27.15,ENE,67,5.0,9.0,43,0.00,,,0.00,Rainwise IP-100,2013-04-16 15:12:00,
2013-04-16 09:17:00,32.0,14.0,27.15,ESE,112,3.0,10.0,42,0.00,,,0.00,Rainwise IP-100,2013-04-16 15:17:00,
2013-04-16 09:22:00,32.0,11.0,27.15,ESE,112,4.0,10.0,40,0.00,,,0.00,Rainwise IP-100,2013-04-16 15:22:00,
2013-04-16 09:27:00,32.0,11.0,27.15,ENE,67,4.0,8.0,41,0.00,,,0.00,Rainwise IP-100,2013-04-16 15:27:00,
2013-04-16 09:32:00,32.0,11.0,27.15,SE,135,7.0,9.0,40,0.00,,,0.00,Rainwise IP-100,2013-04-16 15:32:00,
2013-04-16 09:37:00,33.0,14.0,27.15,SE,135,4.0,9.0,40,0.00,,,0.00,Rainwise IP-100,2013-04-16 15:37:00,
2013-04-16 09:42:00,34.0,11.0,27.14,NE,45,6.0,9.0,36,0.00,,,0.00,Rainwise IP-100,2013-04-16 15:42:00,
2013-04-16 09:47:00,34.0,14.0,27.14,SE,135,3.0,7.0,39,0.00,,,0.00,Rainwise IP-100,2013-04-16 15:47:00,
2013-04-16 09:52:00,34.0,11.0,27.14,East,90,4.0,9.0,37,0.00,,,0.00,Rainwise IP-100,2013-04-16 15:52:00,
2013-04-16 09:57:00,34.0,11.0,27.14,SE,135,6.0,10.0,37,0.00,,,0.00,Rainwise IP-100,2013-04-16 15:57:00,
2013-04-16 10:02:00,34.0,11.0,27.14,East,90,6.0,12.0,36,0.00,,,0.00,Rainwise IP-100,2013-04-16 16:02:00,
2013-04-16 10:07:00,35.0,11.0,27.14,ENE,67,9.0,9.0,36,0.00,,,0.00,Rainwise IP-100,2013-04-16 16:07:00,
2013-04-16 10:12:00,34.0,11.0,27.14,ENE,67,6.0,9.0,34,0.00,,,0.00,Rainwise IP-100,2013-04-16 16:12:00,
2013-04-16 10:17:00,35.0,11.0,27.14,ENE,67,6.0,13.0,36,0.00,,,0.00,Rainwise IP-100,2013-04-16 16:17:00,
2013-04-16 10:22:00,35.0,11.0,27.13,SE,135,7.0,12.0,35,0.00,,,0.00,Rainwise IP-100,2013-04-16 16:22:00,
2013-04-16 10:27:00,35.0,11.0,27.13,ENE,67,5.0,10.0,36,0.00,,,0.00,Rainwise IP-100,2013-04-16 16:27:00,
2013-04-16 10:32:00,35.0,11.0,27.13,ENE,67,7.0,10.0,34,0.00,,,0.00,Rainwise IP-100,2013-04-16 16:32:00,
2013-04-16 10:37:00,35.0,11.0,27.13,ESE,112,8.0,12.0,34,0.00,,,0.00,Rainwise IP-100,2013-04-16 16:37:00,
2013-04-16 10:42:00,36.0,11.0,27.13,ESE,112,6.0,12.0,34,0.00,,,0.00,Rainwise IP-100,2013-04-16 16:42:00,
2013-04-16 10:47:00,35.0,11.0,27.13,ESE,112,7.0,14.0,35,0.00,,,0.00,Rainwise IP-100,2013-04-16 16:47:00,
2013-04-16 10:52:00,35.0,11.0,27.13,SE,135,6.0,13.0,34,0.00,,,0.00,Rainwise IP-100,2013-04-16 16:52:00,
2013-04-16 10:57:00,35.0,11.0,27.13,ENE,67,6.0,14.0,34,0.00,,,0.00,Rainwise IP-100,2013-04-16 16:57:00,
2013-04-16 11:02:00,36.0,11.0,27.13,ESE,112,6.0,16.0,31,0.00,,,0.00,Rainwise IP-100,2013-04-16 17:02:00,
2013-04-16 11:07:00,36.0,11.0,27.13,SE,135,10.0,12.0,32,0.00,,,0.00,Rainwise IP-100,2013-04-16 17:07:00,
2013-04-16 11:12:00,37.0,11.0,27.12,ENE,67,7.0,12.0,32,0.00,,,0.00,Rainwise IP-100,2013-04-16 17:12:00,
2013-04-16 11:17:00,37.0,11.0,27.12,SE,135,5.0,15.0,32,0.00,,,0.00,Rainwise IP-100,2013-04-16 17:17:00,
2013-04-16 11:22:00,37.0,11.0,27.13,ENE,67,9.0,14.0,32,0.00,,,0.00,Rainwise IP-100,2013-04-16 17:22:00,
2013-04-16 11:27:00,37.0,11.0,27.13,East,90,5.0,11.0,31,0.00,,,0.00,Rainwise IP-100,2013-04-16 17:27:00,
2013-04-16 11:32:00,37.0,11.0,27.13,NE,45,6.0,13.0,32,0.00,,,0.00,Rainwise IP-100,2013-04-16 17:32:00,
2013-04-16 11:37:00,38.0,11.0,27.13,ENE,67,3.0,13.0,31,0.00,,,0.00,Rainwise IP-100,2013-04-16 17:37:00,
2013-04-16 11:42:00,37.0,11.0,27.13,ENE,67,10.0,12.0,31,0.00,,,0.00,Rainwise IP-100,2013-04-16 17:42:00,
2013-04-16 11:47:00,38.0,11.0,27.13,ENE,67,5.0,15.0,31,0.00,,,0.00,Rainwise IP-100,2013-04-16 17:47:00,
2013-04-16 11:52:00,37.0,11.0,27.13,ESE,112,7.0,17.0,31,0.00,,,0.00,Rainwise IP-100,2013-04-16 17:52:00,
2013-04-16 11:57:00,38.0,11.0,27.13,East,90,7.0,15.0,32,0.00,,,0.00,Rainwise IP-100,2013-04-16 17:57:00,
2013-04-16 12:02:00,38.0,11.0,27.12,ENE,67,4.0,14.0,32,0.00,,,0.00,Rainwise IP-100,2013-04-16 18:02:00,
2013-04-16 12:07:00,38.0,11.0,27.12,ENE,67,5.0,10.0,32,0.00,,,0.00,Rainwise IP-100,2013-04-16 18:07:00,
2013-04-16 12:12:00,38.0,11.0,27.12,East,90,9.0,13.0,32,0.00,,,0.00,Rainwise IP-100,2013-04-16 18:12:00,
2013-04-16 12:17:00,38.0,11.0,27.12,ENE,67,6.0,12.0,32,0.00,,,0.00,Rainwise IP-100,2013-04-16 18:17:00,
2013-04-16 12:22:00,39.0,14.0,27.11,ENE,67,3.0,14.0,32,0.00,,,0.00,Rainwise IP-100,2013-04-16 18:22:00,
2013-04-16 12:27:00,39.0,11.0,27.11,East,90,6.0,9.0,31,0.00,,,0.00,Rainwise IP-100,2013-04-16 18:27:00,
2013-04-16 12:32:00,38.0,11.0,27.12,East,90,4.0,11.0,30,0.00,,,0.00,Rainwise IP-100,2013-04-16 18:32:00,
2013-04-16 12:37:00,37.0,11.0,27.12,North,360,6.0,12.0,32,0.00,,,0.00,Rainwise IP-100,2013-04-16 18:37:00,
2013-04-16 12:42:00,37.0,11.0,27.13,ENE,67,7.0,15.0,32,0.00,,,0.00,Rainwise IP-100,2013-04-16 18:42:00,
2013-04-16 12:47:00,37.0,11.0,27.13,ENE,67,7.0,14.0,32,0.00,,,0.00,Rainwise IP-100,2013-04-16 18:47:00,
2013-04-16 12:52:00,38.0,14.0,27.11,NE,45,6.0,16.0,34,0.00,,,0.00,Rainwise IP-100,2013-04-16 18:52:00,
2013-04-16 12:57:00,38.0,11.0,27.11,East,90,7.0,15.0,32,0.00,,,0.00,Rainwise IP-100,2013-04-16 18:57:00,
2013-04-16 13:02:00,39.0,11.0,27.11,ESE,112,10.0,13.0,31,0.00,,,0.00,Rainwise IP-100,2013-04-16 19:02:00,
2013-04-16 13:07:00,39.0,14.0,27.11,ESE,112,9.0,15.0,32,0.00,,,0.00,Rainwise IP-100,2013-04-16 19:07:00,
2013-04-16 13:12:00,40.0,14.0,27.09,East,90,8.0,13.0,30,0.00,,,0.00,Rainwise IP-100,2013-04-16 19:12:00,
2013-04-16 13:17:00,40.0,14.0,27.09,NE,45,4.0,15.0,30,0.00,,,0.00,Rainwise IP-100,2013-04-16 19:17:00,
2013-04-16 13:22:00,41.0,14.0,27.09,SSE,157,3.0,13.0,31,0.00,,,0.00,Rainwise IP-100,2013-04-16 19:22:00,
2013-04-16 13:27:00,41.0,11.0,27.09,ENE,67,3.0,15.0,28,0.00,,,0.00,Rainwise IP-100,2013-04-16 19:27:00,
2013-04-16 13:32:00,39.0,11.0,27.10,SE,135,8.0,16.0,29,0.00,,,0.00,Rainwise IP-100,2013-04-16 19:32:00,
2013-04-16 13:37:00,39.0,11.0,27.10,ESE,112,7.0,16.0,29,0.00,,,0.00,Rainwise IP-100,2013-04-16 19:37:00,
2013-04-16 13:42:00,38.0,11.0,27.10,NE,45,7.0,17.0,31,0.00,,,0.00,Rainwise IP-100,2013-04-16 19:42:00,
2013-04-16 13:47:00,39.0,11.0,27.11,North,360,3.0,13.0,29,0.00,,,0.00,Rainwise IP-100,2013-04-16 19:47:00,
2013-04-16 13:52:00,38.0,11.0,27.11,ESE,112,3.0,10.0,30,0.00,,,0.00,Rainwise IP-100,2013-04-16 19:52:00,
2013-04-16 13:57:00,38.0,11.0,27.11,East,90,6.0,12.0,29,0.00,,,0.00,Rainwise IP-100,2013-04-16 19:57:00,
2013-04-16 14:02:00,38.0,11.0,27.11,North,360,7.0,9.0,32,0.00,,,0.00,Rainwise IP-100,2013-04-16 20:02:00,
2013-04-16 14:07:00,39.0,14.0,27.11,North,360,7.0,9.0,33,0.00,,,0.00,Rainwise IP-100,2013-04-16 20:07:00,
2013-04-16 14:12:00,39.0,14.0,27.11,WNW,292,12.0,12.0,33,0.00,,,0.00,Rainwise IP-100,2013-04-16 20:12:00,
2013-04-16 14:17:00,38.0,11.0,27.11,WNW,292,8.0,12.0,32,0.00,,,0.00,Rainwise IP-100,2013-04-16 20:17:00,
2013-04-16 14:22:00,39.0,14.0,27.11,NNE,22,7.0,10.0,32,0.00,,,0.00,Rainwise IP-100,2013-04-16 20:22:00,
2013-04-16 14:27:00,39.0,11.0,27.11,NE,45,6.0,7.0,31,0.00,,,0.00,Rainwise IP-100,2013-04-16 20:27:00,
2013-04-16 14:32:00,41.0,14.0,27.11,NNW,337,10.0,10.0,29,0.00,,,0.00,Rainwise IP-100,2013-04-16 20:32:00,
2013-04-16 14:37:00,40.0,11.0,27.09,NNW,337,3.0,13.0,29,0.00,,,0.00,Rainwise IP-100,2013-04-16 20:37:00,
2013-04-16 14:42:00,40.0,11.0,27.09,NNE,22,1.0,12.0,29,0.00,,,0.00,Rainwise IP-100,2013-04-16 20:42:00,
2013-04-16 14:47:00,40.0,14.0,27.09,NNW,337,4.0,12.0,31,0.00,,,0.00,Rainwise IP-100,2013-04-16 20:47:00,
2013-04-16 14:52:00,39.0,11.0,27.09,WNW,292,6.0,10.0,31,0.00,,,0.00,Rainwise IP-100,2013-04-16 20:52:00,
2013-04-16 14:57:00,39.0,11.0,27.11,NNW,337,3.0,11.0,31,0.00,,,0.00,Rainwise IP-100,2013-04-16 20:57:00,
2013-04-16 15:02:00,38.0,11.0,27.11,South,180,2.0,12.0,31,0.00,,,0.00,Rainwise IP-100,2013-04-16 21:02:00,
2013-04-16 15:07:00,39.0,11.0,27.11,NE,45,1.0,9.0,31,0.00,,,0.00,Rainwise IP-100,2013-04-16 21:07:00,
2013-04-16 15:12:00,39.0,14.0,27.11,North,360,4.0,9.0,32,0.00,,,0.00,Rainwise IP-100,2013-04-16 21:12:00,
2013-04-16 15:17:00,39.0,14.0,27.11,NNE,22,4.0,9.0,32,0.00,,,0.00,Rainwise IP-100,2013-04-16 21:17:00,
2013-04-16 15:22:00,40.0,14.0,27.11,NW,315,12.0,12.0,33,0.00,,,0.00,Rainwise IP-100,2013-04-16 21:22:00,
2013-04-16 15:27:00,39.0,16.0,27.10,North,360,2.0,12.0,37,0.00,,,0.00,Rainwise IP-100,2013-04-16 21:27:00,
2013-04-16 15:32:00,39.0,14.0,27.10,NW,315,13.0,13.0,35,0.00,,,0.00,Rainwise IP-100,2013-04-16 21:32:00,
2013-04-16 15:37:00,38.0,14.0,27.11,North,360,5.0,14.0,35,0.00,,,0.00,Rainwise IP-100,2013-04-16 21:37:00,
2013-04-16 15:42:00,38.0,16.0,27.11,NW,315,10.0,13.0,37,0.00,,,0.00,Rainwise IP-100,2013-04-16 21:42:00,
2013-04-16 15:47:00,38.0,16.0,27.12,NNW,337,7.0,13.0,37,0.00,,,0.00,Rainwise IP-100,2013-04-16 21:47:00,
2013-04-16 15:52:00,38.0,16.0,27.12,West,270,12.0,13.0,39,0.00,,,0.00,Rainwise IP-100,2013-04-16 21:52:00,
2013-04-16 15:57:00,38.0,16.0,27.12,NW,315,5.0,15.0,38,0.00,,,0.00,Rainwise IP-100,2013-04-16 21:57:00,
2013-04-16 16:02:00,38.0,16.0,27.12,NNW,337,6.0,11.0,37,0.00,,,0.00,Rainwise IP-100,2013-04-16 22:02:00,
2013-04-16 16:07:00,38.0,16.0,27.12,ENE,67,3.0,10.0,37,0.00,,,0.00,Rainwise IP-100,2013-04-16 22:07:00,
2013-04-16 16:12:00,37.0,16.0,27.12,ENE,67,5.0,15.0,43,0.00,,,0.00,Rainwise IP-100,2013-04-16 22:12:00,
2013-04-16 16:17:00,37.0,14.0,27.13,SSE,157,3.0,9.0,38,0.00,,,0.00,Rainwise IP-100,2013-04-16 22:17:00,
2013-04-16 16:22:00,38.0,14.0,27.13,NNE,22,1.0,6.0,34,0.00,,,0.00,Rainwise IP-100,2013-04-16 22:22:00,
2013-04-16 16:27:00,40.0,14.0,27.12,NNE,22,4.0,6.0,33,0.00,,,0.00,Rainwise IP-100,2013-04-16 22:27:00,
2013-04-16 16:32:00,42.0,14.0,27.12,WSW,247,2.0,7.0,31,0.00,,,0.00,Rainwise IP-100,2013-04-16 22:32:00,
2013-04-16 16:37:00,42.0,14.0,27.09,SW,225,0.0,7.0,31,0.00,,,0.00,Rainwise IP-100,2013-04-16 22:37:00,
2013-04-16 16:42:00,43.0,14.0,27.09,East,90,3.0,6.0,28,0.00,,,0.00,Rainwise IP-100,2013-04-16 22:42:00,
2013-04-16 16:47:00,43.0,14.0,27.09,NNE,22,5.0,9.0,28,0.00,,,0.00,Rainwise IP-100,2013-04-16 22:47:00,
2013-04-16 16:52:00,40.0,14.0,27.09,North,360,6.0,15.0,32,0.00,,,0.00,Rainwise IP-100,2013-04-16 22:52:00,
2013-04-16 16:57:00,39.0,14.0,27.11,NW,315,10.0,13.0,34,0.00,,,0.00,Rainwise IP-100,2013-04-16 22:57:00,
2013-04-16 17:02:00,39.0,14.0,27.11,NNW,337,6.0,11.0,34,0.00,,,0.00,Rainwise IP-100,2013-04-16 23:02:00,
2013-04-16 17:07:00,39.0,16.0,27.11,NNW,337,7.0,11.0,36,0.00,,,0.00,Rainwise IP-100,2013-04-16 23:07:00,
2013-04-16 17:12:00,39.0,16.0,27.11,NNW,337,4.0,14.0,36,0.00,,,0.00,Rainwise IP-100,2013-04-16 23:12:00,
2013-04-16 17:17:00,39.0,14.0,27.12,NE,45,7.0,9.0,35,0.00,,,0.00,Rainwise IP-100,2013-04-16 23:17:00,
2013-04-16 17:22:00,40.0,16.0,27.12,NW,315,3.0,9.0,34,0.00,,,0.00,Rainwise IP-100,2013-04-16 23:22:00,
2013-04-16 17:27:00,40.0,16.0,27.11,WNW,292,9.0,9.0,35,0.00,,,0.00,Rainwise IP-100,2013-04-16 23:27:00,
2013-04-16 17:32:00,38.0,16.0,27.11,West,270,7.0,9.0,39,0.00,,,0.00,Rainwise IP-100,2013-04-16 23:32:00,
2013-04-16 17:37:00,39.0,16.0,27.13,ESE,112,6.0,7.0,39,0.00,,,0.00,Rainwise IP-100,2013-04-16 23:37:00,
2013-04-16 17:42:00,39.0,16.0,27.13,ESE,112,8.0,9.0,38,0.00,,,0.00,Rainwise IP-100,2013-04-16 23:42:00,
2013-04-16 17:47:00,38.0,14.0,27.12,WSW,247,5.0,14.0,35,0.00,,,0.00,Rainwise IP-100,2013-04-16 23:47:00,
2013-04-16 17:52:00,39.0,14.0,27.12,ENE,67,4.0,9.0,32,0.00,,,0.00,Rainwise IP-100,2013-04-16 23:52:00,
2013-04-16 17:57:00,39.0,14.0,27.13,North,360,7.0,20.0,34,0.00,,,0.00,Rainwise IP-100,2013-04-16 23:57:00,
2013-04-16 18:02:00,39.0,11.0,27.13,NE,45,3.0,13.0,31,0.00,,,0.00,Rainwise IP-100,2013-04-17 00:02:00,
2013-04-16 18:07:00,39.0,11.0,27.13,ESE,112,7.0,10.0,29,0.00,,,0.00,Rainwise IP-100,2013-04-17 00:07:00,
2013-04-16 18:12:00,38.0,11.0,27.13,ENE,67,3.0,7.0,31,0.00,,,0.00,Rainwise IP-100,2013-04-17 00:12:00,
2013-04-16 18:17:00,38.0,11.0,27.13,NE,45,2.0,7.0,31,0.00,,,0.00,Rainwise IP-100,2013-04-17 00:17:00,
2013-04-16 18:22:00,39.0,11.0,27.13,ENE,67,2.0,8.0,30,0.00,,,0.00,Rainwise IP-100,2013-04-17 00:22:00,
2013-04-16 18:27:00,40.0,11.0,27.13,North,360,10.0,11.0,27,0.00,,,0.00,Rainwise IP-100,2013-04-17 00:27:00,
2013-04-16 18:32:00,40.0,11.0,27.13,ENE,67,2.0,13.0,28,0.00,,,0.00,Rainwise IP-100,2013-04-17 00:32:00,
2013-04-16 18:37:00,39.0,11.0,27.13,ENE,67,6.0,14.0,31,0.00,,,0.00,Rainwise IP-100,2013-04-17 00:37:00,
2013-04-16 18:42:00,38.0,11.0,27.13,NE,45,7.0,16.0,32,0.00,,,0.00,Rainwise IP-100,2013-04-17 00:42:00,
2013-04-16 18:47:00,38.0,14.0,27.14,North,360,6.0,13.0,33,0.00,,,0.00,Rainwise IP-100,2013-04-17 00:47:00,
2013-04-16 18:52:00,38.0,14.0,27.14,NNE,22,7.0,9.0,34,0.00,,,0.00,Rainwise IP-100,2013-04-17 00:52:00,
2013-04-16 18:57:00,38.0,14.0,27.14,NNE,22,3.0,10.0,34,0.00,,,0.00,Rainwise IP-100,2013-04-17 00:57:00,
2013-04-16 19:02:00,38.0,14.0,27.14,NNE,22,4.0,7.0,33,0.00,,,0.00,Rainwise IP-100,2013-04-17 01:02:00,
2013-04-16 19:07:00,37.0,11.0,27.15,North,360,6.0,7.0,33,0.00,,,0.00,Rainwise IP-100,2013-04-17 01:07:00,
2013-04-16 19:12:00,37.0,11.0,27.15,NNW,337,7.0,10.0,33,0.00,,,0.00,Rainwise IP-100,2013-04-17 01:12:00,
2013-04-16 19:17:00,37.0,11.0,27.15,NE,45,4.0,9.0,34,0.00,,,0.00,Rainwise IP-100,2013-04-17 01:17:00,
2013-04-16 19:22:00,37.0,11.0,27.15,ENE,67,4.0,11.0,33,0.00,,,0.00,Rainwise IP-100,2013-04-17 01:22:00,
2013-04-16 19:27:00,37.0,11.0,27.16,NE,45,5.0,16.0,32,0.00,,,0.00,Rainwise IP-100,2013-04-17 01:27:00,
2013-04-16 19:32:00,37.0,11.0,27.16,NE,45,5.0,15.0,32,0.00,,,0.00,Rainwise IP-100,2013-04-17 01:32:00,
2013-04-16 19:37:00,37.0,11.0,27.16,NE,45,5.0,12.0,32,0.00,,,0.00,Rainwise IP-100,2013-04-17 01:37:00,
2013-04-16 19:42:00,37.0,11.0,27.16,NE,45,5.0,12.0,31,0.00,,,0.00,Rainwise IP-100,2013-04-17 01:42:00,
2013-04-16 19:47:00,37.0,11.0,27.17,ENE,67,8.0,12.0,31,0.00,,,0.00,Rainwise IP-100,2013-04-17 01:47:00,
2013-04-16 19:52:00,36.0,11.0,27.17,NE,45,7.0,10.0,31,0.00,,,0.00,Rainwise IP-100,2013-04-17 01:52:00,
2013-04-16 19:57:00,36.0,11.0,27.17,NE,45,6.0,12.0,31,0.00,,,0.00,Rainwise IP-100,2013-04-17 01:57:00,
2013-04-16 20:02:00,36.0,11.0,27.17,North,360,6.0,12.0,32,0.00,,,0.00,Rainwise IP-100,2013-04-17 02:02:00,
2013-04-16 20:07:00,36.0,11.0,27.18,NNE,22,3.0,7.0,32,0.00,,,0.00,Rainwise IP-100,2013-04-17 02:07:00,
2013-04-16 20:12:00,36.0,11.0,27.18,NNE,22,5.0,8.0,32,0.00,,,0.00,Rainwise IP-100,2013-04-17 02:12:00,
2013-04-16 20:17:00,35.0,8.0,27.18,NE,45,7.0,10.0,32,0.00,,,0.00,Rainwise IP-100,2013-04-17 02:17:00,
2013-04-16 20:22:00,35.0,8.0,27.18,North,360,7.0,12.0,32,0.00,,,0.00,Rainwise IP-100,2013-04-17 02:22:00,
2013-04-16 20:27:00,35.0,11.0,27.18,North,360,1.0,7.0,34,0.00,,,0.00,Rainwise IP-100,2013-04-17 02:27:00,
2013-04-16 20:32:00,34.0,11.0,27.18,East,90,1.0,7.0,35,0.00,,,0.00,Rainwise IP-100,2013-04-17 02:32:00,
2013-04-16 20:37:00,35.0,11.0,27.19,East,90,4.0,8.0,34,0.00,,,0.00,Rainwise IP-100,2013-04-17 02:37:00,
2013-04-16 20:42:00,35.0,8.0,27.19,NE,45,7.0,11.0,32,0.00,,,0.00,Rainwise IP-100,2013-04-17 02:42:00,
2013-04-16 20:47:00,35.0,8.0,27.20,ESE,112,3.0,10.0,32,0.00,,,0.00,Rainwise IP-100,2013-04-17 02:47:00,
2013-04-16 20:52:00,35.0,8.0,27.20,North,360,5.0,10.0,32,0.00,,,0.00,Rainwise IP-100,2013-04-17 02:52:00,
2013-04-16 20:57:00,35.0,8.0,27.20,ENE,67,6.0,14.0,31,0.00,,,0.00,Rainwise IP-100,2013-04-17 02:57:00,
2013-04-16 21:02:00,35.0,8.0,27.20,ESE,112,5.0,13.0,31,0.00,,,0.00,Rainwise IP-100,2013-04-17 03:02:00,
2013-04-16 21:07:00,34.0,8.0,27.20,East,90,10.0,10.0,31,0.00,,,0.00,Rainwise IP-100,2013-04-17 03:07:00,
2013-04-16 21:12:00,34.0,8.0,27.20,NNE,22,4.0,15.0,31,0.00,,,0.00,Rainwise IP-100,2013-04-17 03:12:00,
2013-04-16 21:17:00,34.0,8.0,27.22,NE,45,7.0,10.0,32,0.00,,,0.00,Rainwise IP-100,2013-04-17 03:17:00,
2013-04-16 21:22:00,34.0,8.0,27.22,NE,45,4.0,12.0,32,0.00,,,0.00,Rainwise IP-100,2013-04-17 03:22:00,
2013-04-16 21:27:00,34.0,11.0,27.22,East,90,8.0,12.0,33,0.00,,,0.00,Rainwise IP-100,2013-04-17 03:27:00,
2013-04-16 21:32:00,34.0,11.0,27.22,East,90,3.0,9.0,34,0.00,,,0.00,Rainwise IP-100,2013-04-17 03:32:00,
2013-04-16 21:37:00,34.0,11.0,27.23,East,90,1.0,9.0,33,0.00,,,0.00,Rainwise IP-100,2013-04-17 03:37:00,
2013-04-16 21:42:00,33.0,8.0,27.23,NE,45,7.0,11.0,33,0.00,,,0.00,Rainwise IP-100,2013-04-17 03:42:00,
2013-04-16 21:48:00,33.0,8.0,27.23,NE,45,8.0,12.0,33,0.00,,,0.00,Rainwise IP-100,2013-04-17 03:48:00,
2013-04-16 21:53:00,33.0,8.0,27.24,ENE,67,9.0,10.0,33,0.00,,,0.00,Rainwise IP-100,2013-04-17 03:53:00,
2013-04-16 21:58:00,33.0,8.0,27.24,East,90,11.0,11.0,33,0.00,,,0.00,Rainwise IP-100,2013-04-17 03:58:00,
2013-04-16 22:00:00,33.0,8.0,27.24,ENE,67,4.0,12.0,33,0.00,,,0.00,Rainwise IP-100,2013-04-17 04:00:00,
2013-04-16 22:01:00,33.0,8.0,27.24,NE,45,0.0,12.0,34,0.00,,,0.00,Rainwise IP-100,2013-04-17 04:01:00,
2013-04-16 22:06:00,32.0,8.0,27.24,ENE,67,3.0,10.0,35,0.00,,,0.00,Rainwise IP-100,2013-04-17 04:06:00,
2013-04-16 22:11:00,32.0,8.0,27.24,ESE,112,3.0,9.0,35,0.00,,,0.00,Rainwise IP-100,2013-04-17 04:11:00,
2013-04-16 22:16:00,32.0,8.0,27.25,ESE,112,3.0,7.0,35,0.00,,,0.00,Rainwise IP-100,2013-04-17 04:16:00,
2013-04-16 22:21:00,32.0,8.0,27.25,ENE,67,2.0,6.0,35,0.00,,,0.00,Rainwise IP-100,2013-04-17 04:21:00,
2013-04-16 22:26:00,32.0,8.0,27.25,ENE,67,2.0,9.0,36,0.00,,,0.00,Rainwise IP-100,2013-04-17 04:26:00,
2013-04-16 22:31:00,32.0,8.0,27.25,East,90,3.0,9.0,36,0.00,,,0.00,Rainwise IP-100,2013-04-17 04:31:00,
2013-04-16 22:36:00,32.0,8.0,27.26,ESE,112,4.0,9.0,36,0.00,,,0.00,Rainwise IP-100,2013-04-17 04:36:00,
2013-04-16 22:41:00,31.0,8.0,27.26,ENE,67,5.0,11.0,36,0.00,,,0.00,Rainwise IP-100,2013-04-17 04:41:00,
2013-04-16 22:46:00,31.0,8.0,27.26,ENE,67,4.0,12.0,36,0.00,,,0.00,Rainwise IP-100,2013-04-17 04:46:00,
2013-04-16 22:51:00,31.0,8.0,27.26,NNE,22,10.0,13.0,36,0.00,,,0.00,Rainwise IP-100,2013-04-17 04:51:00,
2013-04-16 22:56:00,31.0,8.0,27.26,NE,45,6.0,11.0,36,0.00,,,0.00,Rainwise IP-100,2013-04-17 04:56:00,
2013-04-16 23:01:00,31.0,8.0,27.26,ESE,112,5.0,12.0,37,0.00,,,0.00,Rainwise IP-100,2013-04-17 05:01:00,
2013-04-16 23:06:00,31.0,8.0,27.27,ESE,112,3.0,7.0,37,0.00,,,0.00,Rainwise IP-100,2013-04-17 05:06:00,
2013-04-16 23:11:00,31.0,8.0,27.27,East,90,4.0,8.0,37,0.00,,,0.00,Rainwise IP-100,2013-04-17 05:11:00,
2013-04-16 23:16:00,31.0,8.0,27.27,ENE,67,9.0,9.0,37,0.00,,,0.00,Rainwise IP-100,2013-04-17 05:16:00,
2013-04-16 23:21:00,31.0,8.0,27.27,East,90,1.0,10.0,37,0.00,,,0.00,Rainwise IP-100,2013-04-17 05:21:00,
2013-04-16 23:26:00,30.0,8.0,27.27,ESE,112,6.0,10.0,37,0.00,,,0.00,Rainwise IP-100,2013-04-17 05:26:00,
2013-04-16 23:31:00,30.0,8.0,27.27,East,90,2.0,12.0,37,0.00,,,0.00,Rainwise IP-100,2013-04-17 05:31:00,
2013-04-16 23:36:00,30.0,8.0,27.27,ENE,67,5.0,9.0,37,0.00,,,0.00,Rainwise IP-100,2013-04-17 05:36:00,
2013-04-16 23:41:00,30.0,8.0,27.27,ENE,67,2.0,9.0,38,0.00,,,0.00,Rainwise IP-100,2013-04-17 05:41:00,
2013-04-16 23:44:00,30.0,8.0,27.27,East,90,4.0,9.0,38,0.00,,,0.00,Rainwise IP-100,2013-04-17 05:44:00,
2013-04-16 23:46:00,30.0,8.0,27.27,ENE,67,5.0,10.0,38,0.00,,,0.00,Rainwise IP-100,2013-04-17 05:46:00,
2013-04-16 23:51:00,30.0,8.0,27.27,NE,45,9.0,11.0,38,0.00,,,0.00,Rainwise IP-100,2013-04-17 05:51:00,
2013-04-16 23:56:00,30.0,8.0,27.27,NE,45,4.0,11.0,38,0.00,,,0.00,Rainwise IP-100,2013-04-17 05:56:00,